Temp
22 23 23 22 17 13 15 18 17 19 18 17 18 18 15 15 16 15 16 16 16 15 15 15 16 16 16 16 16 16 16 15 16 16 16 16 16 15 16 16 15 15 15 15 15 14 14 14 13
22 22 22 21 14 14 14 16 18 18 18 18 18 17 16 14 15 15 16 16 16 16 16 16 16 16 16 16 16 16 15 15 16 16 16 16 15 15 15 15 15 15 15 15 15 14 14 14 13
22 22 22 13 11 14 15 17 17 18 18 19 17 16 16 15 15 16 16 15 15 15 16 16 16 16 15 16 16 15 15 15 15 15 15 15 15 15 15 15 15 15 15 15 15 15 15 14 14
22 22 20 14 17 17 17 16 17 17 18 19 17 14 15 15 15 15 16 15 15 15 15 15 15 15 15 15 15 15 15 15 15 15 15 15 14 14 14 14 15 15 15 15 15 15 15 14 14
22 21 14 15 18 18 17 18 18 17 18 18 18 14 14 15 15 15 15 15 15 15 15 15 15 15 15 15 15 15 15 15 14 14 14 14 14 14 14 14 14 14 14 14 15 15 15 15 14
21 19 14 15 17 18 18 19 19 18 18 17 16 14 15 15 15 15 15 15 15 15 15 15 15 15 15 15 15 15 14 14 14 14 14 13 13 13 13 13 13 13 13 14 14 14 14 14 14
18 13 15 14 16 18 18 20 18 18 18 18 17 13 14 15 15 15 15 15 15 15 15 14 14 14 14 14 15 14 14 14 14 14 13 13 13 12 12 12 12 13 13 13 13 13 14 14 14
20 14 16 15 15 18 19 19 20 19 17 17 18 13 14 15 15 15 14 14 14 14 14 14 14 14 14 14 14 14 14 14 14 14 13 13 12 12 11 11 11 11 11 12 12 12 12 13 13
19 12 13 16 15 18 19 18 18 19 18 17 18 18 18 16 15 15 14 14 14 14 14 14 14 13 14 14 13 13 13 13 13 13 13 13 12 11 12 11 11 10 10 11 11 11 11 11 11
16 12 15 16 16 17 18 19 19 18 17 16 17 18 18 16 16 16 15 15 14 14 14 13 13 13 14 13 13 14 14 13 13 13 13 12 12 11 12 12 11 11 11 11 11 11 11 11 11
16 14 15 18 18 18 18 18 19 17 15 18 19 19 17 16 16 15 15 15 15 15 14 14 14 14 13 13 13 13 13 13 13 12 12 12 11 12 12 12 11 11 11 11 11 11 11 11 10
18 17 18 18 18 18 18 18 18 18 19 20 20 20 18 17 17 17 16 16 16 15 15 15 15 14 13 13 12 12 13 12 12 12 13 12 12 12 11 11 11 11 11 11 11 11 11 11 10
17 17 18 18 18 18 18 18 17 18 19 19 19 18 18 17 17 16 16 16 16 16 15 15 15 15 14 14 12 12 12 12 12 12 12 12 12 12 11 11 11 10 11 11 11 10 10 10 10
17 17 17 17 17 17 16 16 17 18 19 19 18 18 17 17 17 16 16 16 16 16 16 16 16 16 15 14 13 12 11 12 12 12 12 12 12 12 12 12 11 10 10 10 10 9 9 9 9
16 16 14 15 16 16 16 15 13 18 17 17 17 17 16 16 16 17 17 16 16 16 16 16 16 16 15 15 13 11 11 11 12 11 12 12 12 12 11 11 11 10 10 10 10 9 9 9 9
15 13 14 15 14 16 16 13 15 17 16 15 16 16 16 16 16 16 15 15 16 16 16 15 15 15 14 14 11 11 11 11 11 11 11 12 11 12 11 11 10 10 10 10 10 10 9 8 8
10 13 12 13 13 14 13 14 15 15 14 15 15 15 15 15 15 15 15 15 15 15 15 15 15 14 13 12 9 10 10 11 11 11 11 11 11 11 11 11 11 10 11 10 10 10 9 9 8
12 12 12 13 14 13 13 11 12 14 13 14 14 15 15 15 17 16 15 15 15 15 15 15 14 14 12 10 10 10 10 10 11 11 11 10 10 10 10 10 10 10 10 10 10 9 9 9 8
13 12 13 13 14 14 12 11 13 14 13 12 14 15 15 16 17 15 15 14 14 14 14 14 14 13 12 8 9 9 10 10 10 10 9 9 10 10 10 9 9 9 9 10 10 10 9 8 7
13 13 11 12 12 12 11 11 11 11 12 14 16 15 16 16 16 16 14 14 14 14 14 14 13 12 11 9 9 9 10 10 10 10 9 9 9 9 9 9 9 9 9 10 9 9 10 8 6
11 11 11 12 13 11 11 10 11 12 12 14 15 17 17 17 18 17 15 15 14 14 14 13 13 12 10 9 9 9 9 10 10 10 9 8 8 8 8 8 9 9 9 9 9 9 8 8 7
11 11 12 12 13 10 12 12 13 12 11 10 14 16 18 18 17 16 15 14 14 14 13 12 11 11 9 8 9 9 10 10 10 9 8 8 8 8 8 8 9 9 9 9 9 8 7 7 7
11 11 11 12 10 11 10 9 13 11 11 12 14 17 19 19 18 17 17 15 15 13 13 12 10 9 7 7 8 9 9 9 9 9 8 7 7 7 8 8 8 8 8 8 8 8 7 6 6
10 11 9 7 8 8 12 10 14 11 13 13 14 17 17 18 18 16 14 13 13 12 11 10 10 9 7 7 8 8 9 9 9 8 7 7 7 7 7 7 7 7 8 7 7 6 6 5 5
12 11 10 9 7 10 7 8 15 13 12 12 14 19 19 16 16 15 14 12 12 11 11 9 9 8 7 8 8 8 9 9 9 8 8 7 7 7 7 7 6 7 7 6 6 5 4 4 4
10 11 9 9 8 9 8 8 10 10 13 15 16 16 15 14 15 15 14 12 12 11 10 9 8 7 7 7 8 8 8 8 8 8 8 8 8 8 7 6 6 6 6 5 4 4 4 4 3
9 10 12 11 -0 5 10 10 10 9 8 10 13 13 12 14 15 15 13 11 10 10 10 10 8 7 7 7 7 7 7 7 7 8 8 8 8 7 7 6 6 5 5 4 3 3 3 3 2
10 10 9 6 8 6 9 8 12 13 11 10 9 12 13 13 14 14 12 10 9 10 10 9 8 7 7 6 6 6 7 7 7 7 7 7 7 7 6 5 5 4 4 3 3 2 2 1 1
9 9 9 9 6 7 6 11 8 12 11 12 10 14 15 15 14 14 12 10 9 9 9 9 7 6 6 5 5 6 6 6 6 7 7 7 7 6 6 5 4 4 3 3 2 2 1 1 -0
10 10 9 8 7 5 6 13 11 9 10 11 14 16 15 14 14 13 12 10 9 9 9 8 7 6 5 5 5 5 6 6 6 6 6 6 6 5 5 4 4 3 3 2 1 1 1 -0 -1
Height
1534 1534 1534 1535 1547 1556 1567 1558 1551 1551 1552 1551 1551 1552 1554 1557 1559 1569 1561 1563 1565 1567 1569 1571 1572 1573 1574 1575 1576 1576 1577 1578 1578 1578 1578 1576 1576 1576 1575 1575 1574 1574 1573 1573 1573 1574 1572 1573 1572
1534 1534 1535 1535 1559 1573 1571 1555 1552 1549 1551 1552 1553 1554 1555 1560 1559 1560 1562 1563 1564 1567 1569 1571 1573 1574 1575 1576 1577 1578 1579 1579 1580 1579 1579 1578 1578 1579 1577 1576 1576 1575 1575 1575 1574 1575 1575 1575 1575
1534 1534 1535 1543 1564 1570 1567 1552 1550 1550 1550 1552 1554 1556 1558 1560 1560 1561 1562 1563 1565 1568 1569 1572 1573 1575 1577 1577 1578 1579 1579 1579 1579 1580 1580 1581 1581 1580 1579 1578 1578 1578 1578 1577 1577 1576 1576 1576 1576
1534 1535 1538 1551 1554 1552 1550 1549 1550 1551 1552 1552 1553 1557 1559 1559 1560 1561 1562 1564 1567 1568 1570 1572 1573 1575 1577 1578 1578 1579 1580 1580 1581 1582 1582 1582 1582 1582 1581 1581 1581 1581 1580 1580 1579 1578 1577 1578 1578
1534 1534 1550 1556 1552 1548 1547 1547 1550 1551 1552 1552 1553 1557 1559 1559 1560 1561 1563 1566 1567 1569 1571 1572 1574 1575 1576 1578 1579 1580 1581 1582 1583 1583 1583 1583 1583 1583 1583 1582 1583 1583 1582 1582 1581 1580 1580 1580 1580
1534 1537 1559 1564 1554 1548 1546 1546 1548 1549 1551 1552 1553 1556 1559 1559 1560 1562 1564 1566 1568 1569 1571 1573 1574 1576 1577 1578 1579 1580 1582 1582 1583 1583 1584 1584 1585 1585 1584 1585 1585 1584 1584 1583 1583 1582 1581 1581 1582
1534 1544 1557 1559 1556 1551 1547 1547 1548 1549 1550 1552 1553 1557 1558 1559 1560 1561 1563 1565 1567 1569 1571 1573 1574 1575 1577 1578 1579 1580 1581 1582 1583 1584 1585 1586 1586 1586 1586 1586 1587 1586 1585 1585 1584 1584 1583 1583 1583
1534 1540 1553 1555 1559 1552 1545 1546 1546 1548 1551 1552 1552 1554 1556 1555 1558 1560 1562 1564 1566 1568 1570 1572 1573 1574 1576 1577 1579 1580 1582 1583 1584 1585 1585 1586 1586 1587 1588 1588 1588 1588 1587 1587 1586 1586 1585 1585 1585
1535 1550 1560 1552 1556 1546 1544 1545 1547 1548 1549 1550 1550 1550 1551 1553 1556 1559 1561 1563 1564 1566 1567 1570 1571 1573 1574 1576 1578 1579 1581 1582 1583 1584 1585 1586 1587 1587 1589 1589 1589 1589 1589 1589 1588 1587 1587 1586 1586
1537 1553 1549 1542 1542 1543 1542 1543 1545 1548 1549 1549 1549 1549 1549 1552 1554 1556 1558 1560 1562 1563 1565 1567 1568 1570 1573 1575 1577 1579 1580 1581 1582 1583 1585 1585 1587 1588 1588 1589 1590 1589 1589 1589 1589 1589 1588 1587 1587
1539 1546 1541 1541 1541 1540 1542 1543 1544 1545 1549 1544 1544 1546 1548 1550 1553 1555 1556 1558 1560 1561 1563 1564 1566 1568 1570 1572 1574 1576 1578 1579 1581 1582 1583 1585 1585 1587 1588 1589 1590 1590 1590 1590 1590 1590 1589 1589 1588
1541 1540 1541 1541 1541 1540 1541 1542 1543 1542 1541 1542 1544 1545 1546 1548 1550 1551 1553 1556 1557 1559 1561 1562 1563 1565 1567 1569 1571 1573 1575 1577 1579 1581 1582 1584 1585 1586 1587 1588 1589 1590 1590 1590 1590 1590 1590 1590 1589
1539 1540 1541 1541 1541 1541 1541 1541 1542 1539 1540 1540 1541 1543 1544 1547 1548 1551 1553 1554 1555 1556 1558 1559 1561 1562 1564 1565 1567 1570 1572 1574 1577 1579 1581 1582 1584 1585 1584 1586 1588 1589 1589 1590 1590 1590 1590 1590 1590
1539 1540 1540 1541 1542 1541 1542 1542 1541 1536 1538 1538 1539 1540 1542 1543 1545 1547 1548 1549 1551 1554 1555 1556 1558 1559 1560 1561 1563 1566 1569 1571 1574 1576 1578 1580 1582 1584 1583 1585 1587 1588 1588 1588 1589 1589 1589 1590 1590
1540 1541 1540 1538 1540 1541 1541 1544 1539 1535 1535 1536 1537 1538 1540 1541 1542 1543 1546 1547 1549 1551 1552 1553 1554 1555 1556 1557 1559 1563 1566 1569 1572 1574 1576 1578 1580 1581 1582 1584 1585 1586 1587 1588 1588 1589 1589 1589 1590
1543 1546 1550 1538 1539 1539 1541 1545 1530 1531 1533 1533 1534 1535 1536 1537 1537 1540 1542 1544 1545 1546 1548 1549 1549 1551 1552 1554 1556 1559 1563 1566 1569 1572 1574 1575 1577 1579 1580 1581 1583 1584 1585 1586 1587 1588 1588 1589 1590
1553 1556 1554 1545 1538 1538 1541 1538 1529 1530 1530 1530 1530 1530 1531 1533 1533 1535 1537 1539 1541 1543 1544 1545 1546 1547 1549 1551 1554 1557 1560 1564 1566 1569 1572 1573 1575 1576 1578 1579 1580 1581 1583 1585 1587 1588 1588 1589 1589
1553 1554 1551 1548 1539 1540 1540 1537 1528 1529 1528 1525 1527 1527 1527 1526 1525 1530 1532 1534 1536 1538 1539 1540 1541 1543 1545 1548 1551 1555 1558 1561 1563 1566 1568 1570 1572 1574 1576 1577 1578 1580 1581 1583 1585 1587 1588 1588 1589
1541 1546 1546 1541 1535 1538 1538 1534 1526 1523 1524 1523 1521 1520 1519 1518 1520 1525 1527 1529 1530 1532 1533 1535 1537 1538 1541 1544 1548 1551 1554 1557 1560 1563 1566 1568 1570 1572 1574 1576 1578 1579 1581 1582 1584 1586 1587 1587 1588
1540 1542 1545 1539 1535 1538 1534 1531 1523 1519 1514 1512 1512 1511 1510 1512 1512 1516 1518 1521 1522 1526 1528 1530 1531 1533 1536 1541 1545 1548 1552 1555 1557 1560 1563 1565 1568 1570 1573 1575 1577 1579 1580 1580 1581 1584 1585 1587 1588
1541 1544 1542 1540 1535 1534 1533 1527 1519 1507 1505 1505 1502 1501 1502 1500 1501 1505 1508 1511 1515 1518 1521 1524 1526 1529 1532 1536 1540 1546 1549 1551 1554 1556 1560 1563 1566 1568 1571 1574 1576 1577 1579 1580 1581 1583 1586 1586 1587
1540 1531 1533 1537 1540 1549 1533 1528 1511 1507 1502 1497 1492 1492 1487 1488 1490 1494 1499 1502 1506 1511 1516 1519 1522 1524 1527 1532 1537 1541 1544 1547 1550 1554 1558 1560 1563 1565 1569 1572 1575 1577 1579 1579 1580 1582 1584 1585 1587
1530 1528 1533 1533 1542 1541 1535 1545 1502 1502 1502 1492 1482 1478 1477 1479 1481 1483 1487 1492 1499 1505 1509 1514 1517 1519 1524 1529 1534 1538 1541 1545 1549 1552 1555 1557 1560 1564 1567 1571 1573 1575 1576 1577 1578 1581 1582 1583 1584
1523 1529 1537 1545 1547 1552 1516 1533 1490 1500 1486 1479 1472 1469 1471 1473 1475 1477 1482 1487 1492 1499 1503 1507 1510 1514 1519 1524 1529 1533 1538 1541 1544 1547 1551 1554 1557 1561 1564 1568 1571 1572 1573 1574 1576 1578 1579 1580 1580
1521 1531 1552 1556 1562 1532 1525 1526 1480 1479 1475 1470 1465 1462 1464 1467 1469 1472 1474 1477 1483 1490 1495 1500 1504 1508 1514 1520 1524 1529 1533 1537 1541 1545 1547 1550 1553 1556 1560 1564 1567 1569 1571 1572 1573 1575 1576 1577 1578
1521 1523 1544 1552 1552 1531 1523 1514 1485 1468 1461 1461 1460 1459 1460 1464 1466 1467 1468 1471 1476 1483 1489 1493 1498 1503 1509 1514 1519 1524 1528 1532 1537 1540 1544 1547 1550 1554 1557 1561 1564 1566 1567 1569 1570 1571 1573 1574 1574
1518 1522 1512 1525 1568 1552 1502 1485 1472 1464 1461 1456 1452 1456 1456 1460 1462 1462 1463 1467 1471 1477 1483 1488 1493 1499 1505 1510 1515 1519 1523 1527 1532 1536 1540 1545 1548 1551 1554 1557 1560 1562 1564 1565 1567 1569 1570 1571 1572
1501 1504 1525 1537 1543 1551 1500 1494 1475 1459 1455 1452 1451 1450 1453 1456 1457 1458 1459 1462 1466 1473 1479 1484 1490 1495 1501 1506 1511 1515 1519 1524 1528 1533 1537 1541 1544 1547 1550 1553 1556 1559 1561 1562 1564 1566 1567 1568 1569
1504 1507 1507 1512 1524 1528 1528 1471 1455 1447 1446 1445 1444 1447 1449 1451 1453 1454 1456 1460 1465 1471 1475 1480 1485 1490 1495 1500 1506 1510 1514 1518 1524 1529 1533 1537 1540 1543 1546 1549 1552 1555 1557 1559 1562 1563 1565 1565 1567
1485 1486 1492 1508 1520 1520 1516 1450 1441 1445 1442 1443 1442 1443 1445 1447 1449 1452 1453 1456 1461 1467 1471 1475 1480 1485 1490 1496 1500 1505 1509 1513 1518 1523 1527 1532 1535 1539 1542 1545 1548 1550 1553 1556 1558 1560 1562 1563 1563
Wind_Speed
4 3 3 1 4 6 1 3 1 1 3 2 6 5 8 6 2 3 17 10 9 13 15 13 12 13 12 11 10 11 10 9 9 10 12 14 15 16 17 16 15 14 13 13 12 11 11 10 8
4 4 2 3 5 4 4 3 5 3 14 20 14 8 7 2 4 8 9 10 12 15 15 14 13 13 11 10 10 9 9 8 7 9 10 12 13 14 15 15 15 14 13 12 12 10 9 8 7
5 3 1 4 4 4 4 4 4 13 18 3 6 8 4 3 8 7 8 13 14 14 14 14 14 13 12 11 9 9 8 7 5 7 9 11 11 13 14 15 14 14 13 12 11 10 9 7 5
4 2 5 4 3 4 4 6 4 11 2 2 12 7 5 5 7 8 11 14 13 13 15 13 13 13 12 10 8 7 7 6 4 5 6 8 9 11 12 13 13 12 12 12 12 11 9 7 6
3 3 4 4 2 2 2 9 16 6 4 7 3 5 5 7 10 11 15 15 14 12 14 13 12 12 11 10 8 7 7 7 5 4 5 7 7 8 10 11 12 12 11 11 11 11 11 10 8
3 3 5 2 2 2 1 9 9 5 6 8 7 9 6 12 12 14 17 17 12 13 13 12 12 13 12 11 10 8 8 7 6 4 5 6 6 6 8 10 11 11 11 11 11 11 11 10 10
6 4 4 6 5 1 4 9 8 8 7 3 14 6 8 14 14 15 16 16 17 17 15 14 13 12 11 11 11 9 9 8 7 6 5 4 4 5 5 7 9 11 11 11 10 10 10 10 10
4 5 4 3 6 5 6 6 10 12 3 14 9 6 7 22 19 18 17 18 20 20 19 20 17 15 14 13 12 11 10 9 8 6 5 5 4 4 6 7 10 11 12 12 11 11 10 10 10
3 5 3 7 7 4 9 4 7 7 12 9 10 6 6 25 23 21 20 20 22 22 21 22 18 19 17 14 14 12 11 10 9 8 7 6 5 5 3 3 6 12 13 15 14 12 10 10 10
4 4 9 5 5 4 8 6 12 7 9 5 10 11 14 26 25 24 23 22 23 23 20 22 19 21 20 17 16 13 13 12 11 10 9 8 7 7 8 4 5 6 7 10 12 12 11 10 10
3 4 5 3 3 5 9 5 8 10 4 13 19 18 23 28 26 25 24 23 22 23 22 21 21 21 22 20 18 18 16 17 14 13 11 11 12 11 11 8 6 5 5 6 6 6 6 6 7
3 1 3 4 2 5 6 5 5 14 7 11 13 19 25 28 28 27 26 24 23 23 22 22 22 20 21 22 21 20 22 20 19 17 14 13 11 11 15 9 5 6 5 5 3 2 2 1 3
2 2 2 3 4 4 5 7 6 13 14 10 15 22 24 26 26 25 23 23 23 23 23 23 23 23 23 24 23 24 23 22 21 19 16 13 14 12 18 9 7 8 7 4 4 3 2 3 0
1 1 2 4 5 4 4 3 4 9 16 14 17 24 25 26 26 26 26 25 24 22 22 22 22 22 24 26 25 27 23 22 21 20 19 18 17 15 14 13 10 9 6 6 5 4 3 2 1
2 3 5 6 6 4 6 6 10 16 16 18 20 23 25 26 27 27 24 25 23 22 21 21 21 22 24 25 27 25 25 23 22 20 20 18 19 19 19 14 15 13 10 8 8 6 4 3 1
3 4 2 2 7 2 7 8 8 20 19 24 24 25 27 28 29 27 26 26 26 24 22 21 21 21 23 24 25 24 25 25 22 21 21 20 21 20 18 17 16 13 12 9 9 5 5 4 3
6 3 4 7 10 3 5 6 2 6 20 26 29 30 30 30 31 30 30 29 28 26 24 22 21 21 23 25 26 25 26 24 22 22 21 22 23 20 20 17 15 14 12 9 6 6 5 6 6
6 4 4 5 3 3 4 12 10 9 15 28 29 31 33 34 36 31 31 31 30 28 26 24 23 22 24 27 28 27 26 26 24 23 20 20 21 20 17 16 15 14 13 10 8 7 8 8 7
5 4 5 4 3 4 8 10 12 16 18 22 28 32 37 39 35 33 33 32 32 31 29 26 24 23 26 30 30 30 29 29 26 23 20 20 21 18 17 16 16 15 13 11 10 10 9 10 9
2 3 6 5 5 6 8 12 11 7 15 30 34 37 40 40 41 37 37 36 35 32 29 27 24 23 25 31 33 31 31 28 27 25 23 20 19 18 17 16 15 14 13 13 11 7 6 9 10
5 6 5 7 3 4 4 8 8 11 22 29 34 40 41 45 46 43 41 41 38 36 32 29 26 25 29 35 33 32 32 30 29 28 24 21 20 18 18 18 17 17 15 13 11 8 7 7 8
7 8 6 5 2 5 2 8 5 6 11 10 32 40 48 50 47 45 44 45 43 39 33 30 27 29 32 32 34 34 34 33 31 28 25 24 22 21 21 20 19 17 15 12 10 9 7 6 5
7 4 5 1 3 3 4 3 3 1 8 14 24 40 46 44 45 46 45 46 44 39 35 32 30 31 32 35 34 33 35 31 30 29 28 27 26 24 23 21 19 17 14 11 8 6 4 3 1
7 5 5 4 3 4 15 8 10 6 13 8 20 32 33 33 37 37 36 39 45 39 36 34 35 34 34 35 35 35 34 33 34 32 32 30 30 29 26 23 19 16 12 9 6 5 4 2 0
4 6 2 3 0 9 4 5 18 5 9 12 15 31 25 18 20 26 31 36 43 43 40 38 37 36 36 36 37 36 35 34 34 33 34 35 35 32 28 23 19 15 11 8 6 4 3 1 2
7 9 6 8 4 5 1 7 7 11 20 25 29 32 29 20 15 20 26 31 37 44 42 40 38 38 38 37 37 36 35 34 34 34 36 36 34 31 27 23 19 15 11 9 7 4 1 2 2
6 7 6 2 2 2 6 8 8 12 11 17 26 21 22 18 20 23 25 28 35 44 43 41 39 38 38 38 38 37 37 37 36 37 38 36 33 29 26 22 19 16 13 10 7 4 3 2 2
6 7 3 2 2 5 5 7 8 6 10 11 12 19 20 15 16 19 23 27 32 41 42 41 39 39 38 38 38 37 37 37 38 39 39 36 33 30 27 24 21 17 14 11 8 6 4 3 3
3 5 2 5 5 5 3 8 8 12 10 10 9 16 17 17 17 18 20 24 29 38 41 40 41 41 41 41 39 39 40 39 40 41 40 37 33 31 27 24 21 18 15 12 10 8 6 5 4
2 6 9 5 5 5 2 16 4 8 7 10 12 9 8 9 10 15 19 22 30 37 40 41 41 43 42 41 41 40 40 41 43 44 41 38 34 31 27 25 23 20 17 15 12 9 7 6 6
Wind_Direction
224 189 180 140 59 65 321 250 248 127 56 42 124 132 133 63 123 199 148 156 155 170 161 161 156 149 140 132 123 116 114 107 82 64 62 60 60 61 63 63 66 66 66 67 72 78 84 92 89
192 175 150 111 86 78 271 266 186 180 135 104 92 92 55 76 97 137 153 163 161 170 164 163 162 159 153 142 133 128 128 118 103 82 71 75 72 68 67 67 67 68 71 74 78 84 89 91 88
169 172 159 90 109 157 184 226 197 146 143 88 114 81 84 93 125 157 151 149 158 173 169 169 170 169 164 156 149 144 136 127 97 84 82 86 80 74 66 61 58 61 65 70 77 87 95 100 96
183 131 66 80 140 210 196 178 189 141 240 197 126 73 99 149 153 164 156 157 159 177 175 175 176 176 173 169 160 155 150 145 139 113 97 86 81 71 65 62 58 57 57 61 67 73 81 91 88
143 84 54 78 341 260 231 165 165 163 152 152 137 152 122 155 158 156 153 156 179 171 180 182 184 185 185 183 179 176 170 165 160 135 113 102 90 73 63 57 56 58 58 62 65 70 75 78 76
89 78 66 137 259 335 279 171 170 149 149 148 121 126 148 159 159 159 161 164 177 182 172 192 192 192 193 194 189 188 183 181 176 160 134 120 103 77 61 51 57 60 59 62 66 70 74 77 77
112 79 166 157 182 223 215 185 171 156 142 161 147 124 167 173 173 173 173 179 179 173 189 192 208 204 199 198 197 199 196 188 180 169 162 146 121 85 53 47 53 62 64 68 71 71 71 70 68
108 92 115 181 181 224 179 172 175 156 161 153 169 177 190 183 180 183 187 189 186 182 189 194 205 210 207 206 204 206 205 202 198 193 193 178 158 116 76 53 47 51 64 64 69 71 70 70 72
110 67 157 188 154 234 169 145 152 171 153 179 196 208 210 185 184 189 193 193 198 200 198 204 203 206 203 210 214 210 213 209 204 206 204 200 186 159 153 100 83 66 61 62 60 66 77 79 79
81 104 202 189 192 219 183 173 160 160 162 203 196 202 186 188 191 195 199 200 203 214 209 210 209 205 204 207 217 220 224 211 202 216 207 202 192 198 195 177 125 109 86 73 66 59 69 78 79
122 167 192 212 202 220 176 191 178 158 223 204 198 189 181 189 197 203 209 214 217 218 220 219 221 213 211 212 209 209 217 220 217 223 212 207 196 212 201 192 179 165 134 117 101 69 66 73 78
99 142 174 186 207 172 176 167 200 200 217 222 211 202 192 196 202 207 211 215 219 221 222 224 228 224 221 220 212 209 220 218 214 215 224 201 213 210 203 198 215 198 171 157 163 121 31 59 70
105 175 207 215 219 221 202 217 214 227 232 227 206 200 204 206 211 213 217 221 221 220 222 225 227 230 229 226 219 210 214 219 218 216 216 207 220 233 187 207 213 220 188 198 209 225 187 218 82
136 180 238 239 226 234 209 243 216 235 227 221 206 205 207 213 214 217 221 221 221 222 223 225 227 229 228 225 222 212 216 218 218 213 210 208 222 218 215 233 222 214 211 215 226 241 227 241 201
76 335 340 229 211 228 197 280 235 235 215 207 201 206 211 215 218 225 230 228 225 226 227 229 230 230 228 226 221 211 213 216 215 214 215 216 214 221 230 226 211 221 223 217 233 228 233 213 181
57 46 8 308 156 231 157 260 267 231 213 213 213 214 218 221 228 228 226 225 226 229 231 233 235 233 228 220 210 202 210 214 217 215 213 218 219 221 227 230 224 226 221 222 220 225 179 178 151
5 232 212 314 200 138 180 266 274 220 216 224 222 223 227 230 231 229 228 228 229 232 236 238 241 236 224 214 205 202 204 209 210 217 219 218 208 225 228 223 223 213 210 195 181 187 186 180 161
201 218 239 235 209 177 220 265 266 254 224 233 234 232 233 236 239 235 233 231 232 233 234 236 236 232 219 208 199 204 204 208 210 209 212 217 220 223 219 212 204 188 176 179 178 174 169 165 160
151 189 220 238 233 176 227 247 260 249 233 238 239 238 237 240 244 238 239 237 234 230 231 233 232 226 212 200 197 202 204 207 210 209 209 211 214 207 199 195 186 176 181 177 159 162 156 152 158
226 223 253 275 240 186 267 254 252 232 237 236 242 241 241 243 245 239 234 234 231 230 231 230 228 222 212 200 199 204 205 207 207 209 207 207 202 197 193 193 187 179 174 166 157 155 172 166 163
227 212 227 232 332 240 310 279 243 250 244 251 250 254 255 251 248 242 234 232 229 227 227 228 225 218 206 201 205 205 206 206 204 203 205 203 200 198 193 187 180 171 173 168 161 164 168 184 188
240 207 206 226 80 255 138 288 237 249 258 233 251 251 253 252 250 249 239 232 229 227 225 224 221 218 210 205 206 208 209 207 205 207 203 202 193 184 177 176 174 175 173 173 170 167 173 164 170
223 142 178 161 166 2 208 248 240 190 261 255 253 253 255 256 256 252 245 237 231 225 223 221 215 216 208 205 207 211 209 211 210 205 205 195 186 180 176 177 179 180 176 174 172 172 166 157 184
138 85 58 57 103 255 242 192 259 203 229 249 254 258 264 263 259 256 250 239 228 222 218 216 215 212 206 203 207 210 213 211 207 205 201 191 184 179 179 180 180 180 179 176 175 172 174 170 131
123 96 312 320 3 243 21 212 244 273 260 229 250 267 274 271 261 251 244 233 224 218 215 213 213 209 205 206 209 210 211 213 216 213 204 192 185 183 183 182 182 184 183 179 173 169 149 81 340
193 164 172 214 209 271 141 234 243 235 260 253 257 267 271 270 270 257 247 237 226 216 214 213 212 209 206 209 210 210 210 210 217 216 206 197 192 188 184 183 186 188 187 183 178 166 199 295 309
194 202 204 343 104 331 233 274 283 250 261 270 264 263 264 269 264 256 245 233 224 215 214 216 213 209 208 210 210 211 211 212 214 209 202 196 192 190 189 189 191 191 191 188 183 204 238 250 247
166 162 77 7 235 255 265 270 229 257 243 242 254 259 269 271 259 254 247 234 224 216 215 216 214 211 210 211 213 214 214 213 212 206 199 196 195 194 193 193 193 196 194 191 196 216 226 228 226
141 196 148 138 161 197 303 260 218 222 212 226 251 256 266 267 261 257 250 237 224 215 215 217 215 212 213 213 215 216 216 212 209 205 200 199 199 198 198 198 199 200 200 200 205 212 218 220 221
243 219 173 161 221 240 166 264 156 237 228 203 247 250 270 267 257 249 244 233 220 217 218 218 218 217 216 215 217 218 215 209 205 203 201 201 201 201 202 202 203 204 204 204 207 217 220 219 218